WAT4855 PANC-PAFA

Flight info

Callsign WAT4855
Flight time 0h 47m
Altitude 29000
Route ANCH1 CAWIN LIBER5
Aircraft B738/M-SDE2E3FGHIRWXY/LB1

Departure

Time 2026-04-20 21:33
Airport Ted Stevens Anchorage International Airport (PANC)

Arrival

Time 2026-04-20 22:21
Airport Fairbanks International Airport (PAFA)
Time Latitude Longitude Altitude Speed Heading
2026-04-20 20:44 61.17315 -149.98418 110 ft 0 kts 148°
2026-04-20 21:15 61.17333 -149.98440 109 ft 4 kts 149°
2026-04-20 21:15 61.17355 -149.98469 109 ft 4 kts 149°
2026-04-20 21:15 61.17377 -149.98500 108 ft 4 kts 143°
2026-04-20 21:16 61.17399 -149.98532 107 ft 4 kts 152°
2026-04-20 21:16 61.17424 -149.98552 108 ft 4 kts 176°
2026-04-20 21:16 61.17441 -149.98548 106 ft 1 kts 200°
2026-04-20 21:16 61.17444 -149.98546 106 ft 0 kts 200°
2026-04-20 21:20 61.17400 -149.98584 108 ft 7 kts 208°
2026-04-20 21:20 61.17361 -149.98633 107 ft 7 kts 212°
2026-04-20 21:20 61.17323 -149.98686 109 ft 8 kts 213°
2026-04-20 21:20 61.17270 -149.98756 110 ft 10 kts 212°
2026-04-20 21:21 61.17206 -149.98757 110 ft 10 kts 163°
2026-04-20 21:21 61.17145 -149.98707 123 ft 9 kts 146°
2026-04-20 21:21 61.17117 -149.98594 113 ft 9 kts 89°
2026-04-20 21:21 61.17116 -149.98424 114 ft 14 kts 86°
2026-04-20 21:22 61.17117 -149.98226 114 ft 13 kts 90°
2026-04-20 21:22 61.17117 -149.98038 114 ft 13 kts 89°
2026-04-20 21:22 61.17117 -149.97854 111 ft 13 kts 92°
2026-04-20 21:22 61.17117 -149.97727 109 ft 0 kts 88°
2026-04-20 21:25 61.17121 -149.97706 109 ft 3 kts 58°
2026-04-20 21:25 61.17131 -149.97701 108 ft 1 kts 343°
2026-04-20 21:26 61.17132 -149.97714 108 ft 1 kts 274°
2026-04-20 21:26 61.17129 -149.97745 108 ft 4 kts 261°
2026-04-20 21:26 61.17124 -149.97814 109 ft 8 kts 259°
2026-04-20 21:26 61.17117 -149.97925 112 ft 8 kts 268°
2026-04-20 21:27 61.17116 -149.98053 114 ft 11 kts 268°
2026-04-20 21:27 61.17115 -149.98226 114 ft 12 kts 270°
2026-04-20 21:27 61.17114 -149.98396 114 ft 12 kts 268°
2026-04-20 21:27 61.17114 -149.98593 115 ft 14 kts 275°
2026-04-20 21:28 61.17118 -149.98789 114 ft 13 kts 271°
2026-04-20 21:28 61.17120 -149.98992 113 ft 17 kts 270°
2026-04-20 21:28 61.17124 -149.99254 118 ft 19 kts 271°
2026-04-20 21:28 61.17123 -149.99535 124 ft 20 kts 268°
2026-04-20 21:29 61.17126 -149.99821 129 ft 20 kts 269°
2026-04-20 21:29 61.17124 -150.00113 135 ft 20 kts 269°
2026-04-20 21:29 61.17122 -150.00400 136 ft 20 kts 269°
2026-04-20 21:29 61.17122 -150.00674 136 ft 19 kts 271°
2026-04-20 21:30 61.17091 -150.00811 135 ft 10 kts 189°
2026-04-20 21:30 61.17075 -150.00812 134 ft 0 kts 180°
2026-04-20 21:32 61.17072 -150.00812 134 ft 2 kts 180°
2026-04-20 21:32 61.17033 -150.00811 134 ft 9 kts 179°
2026-04-20 21:32 61.16978 -150.00755 136 ft 9 kts 119°
2026-04-20 21:32 61.16976 -150.00624 136 ft 11 kts 89°
2026-04-20 21:33 61.16973 -150.00095 132 ft 72 kts 92°
2026-04-20 21:33 61.16979 -149.98584 114 ft 135 kts 90°
2026-04-20 21:33 61.16966 -149.96388 371 ft 162 kts 97°
2026-04-20 21:33 61.16967 -149.93904 855 ft 185 kts 85°
2026-04-20 21:34 61.17510 -149.91309 1467 ft 210 kts 52°
2026-04-20 21:34 61.18767 -149.89440 1823 ft 239 kts 20°
2026-04-20 21:34 61.20410 -149.88381 2325 ft 253 kts 15°
2026-04-20 21:34 61.22166 -149.87370 2817 ft 268 kts 15°
2026-04-20 21:35 61.23994 -149.86337 3617 ft 275 kts 14°
2026-04-20 21:35 61.25814 -149.85305 4584 ft 276 kts 14°
2026-04-20 21:35 61.27674 -149.84237 5485 ft 278 kts 14°
2026-04-20 21:35 61.29569 -149.83326 6404 ft 281 kts
2026-04-20 21:36 61.31488 -149.82572 7309 ft 281 kts
2026-04-20 21:36 61.33420 -149.81846 8174 ft 284 kts
2026-04-20 21:36 61.35374 -149.81110 9044 ft 286 kts
2026-04-20 21:36 61.37340 -149.80359 9909 ft 289 kts
2026-04-20 21:37 61.39327 -149.79589 10755 ft 291 kts
2026-04-20 21:37 61.41324 -149.78806 11593 ft 293 kts
2026-04-20 21:37 61.43339 -149.78021 12419 ft 295 kts
2026-04-20 21:37 61.45363 -149.78191 13181 ft 291 kts 340°
2026-04-20 21:38 61.47196 -149.79929 13832 ft 295 kts 327°
2026-04-20 21:38 61.49032 -149.82198 13998 ft 318 kts 325°
2026-04-20 21:38 61.50975 -149.84709 14219 ft 337 kts 324°
2026-04-20 21:38 61.52998 -149.87330 14739 ft 346 kts 326°
2026-04-20 21:39 61.55108 -149.89813 15428 ft 349 kts 328°
2026-04-20 21:39 61.57259 -149.92233 16130 ft 353 kts 328°
2026-04-20 21:39 61.59437 -149.94656 16805 ft 356 kts 328°
2026-04-20 21:39 61.61524 -149.97457 17456 ft 356 kts 317°
2026-04-20 21:40 61.63433 -150.00787 18101 ft 358 kts 315°
2026-04-20 21:40 61.65318 -150.04233 18696 ft 361 kts 315°
2026-04-20 21:40 61.67211 -150.07732 19295 ft 363 kts 314°
2026-04-20 21:40 61.69110 -150.11262 19890 ft 366 kts 314°
2026-04-20 21:41 61.71022 -150.14834 20498 ft 368 kts 314°
2026-04-20 21:41 61.73115 -150.18010 21041 ft 379 kts 332°
2026-04-20 21:41 61.75684 -150.19218 21648 ft 392 kts 356°
2026-04-20 21:41 61.78412 -150.18480 22314 ft 401 kts 13°
2026-04-20 21:42 61.81067 -150.16563 22889 ft 406 kts 17°
2026-04-20 21:42 61.83732 -150.14489 23413 ft 410 kts 17°
2026-04-20 21:42 61.86417 -150.12370 23873 ft 413 kts 17°
2026-04-20 21:42 61.89118 -150.10244 24324 ft 416 kts 17°
2026-04-20 21:43 61.91836 -150.08121 24830 ft 417 kts 17°
2026-04-20 21:43 61.94554 -150.06011 25432 ft 415 kts 17°
2026-04-20 21:43 61.97259 -150.03921 26014 ft 414 kts 17°
2026-04-20 21:43 61.99967 -150.01835 26550 ft 414 kts 17°
2026-04-20 21:44 62.02676 -149.99751 27084 ft 414 kts 17°
2026-04-20 21:44 62.05382 -149.97667 27639 ft 413 kts 17°
2026-04-20 21:44 62.08092 -149.95578 28049 ft 416 kts 17°
2026-04-20 21:44 62.10828 -149.93466 28320 ft 418 kts 17°
2026-04-20 21:45 62.13562 -149.91350 28608 ft 417 kts 17°
2026-04-20 21:45 62.16279 -149.89240 28799 ft 414 kts 17°
2026-04-20 21:45 62.18989 -149.87132 28779 ft 413 kts 17°
2026-04-20 21:46 62.24387 -149.82923 28789 ft 413 kts 17°
2026-04-20 21:46 62.29794 -149.78694 28791 ft 414 kts 17°
2026-04-20 21:47 62.35207 -149.74443 28783 ft 415 kts 17°
2026-04-20 21:47 62.40623 -149.70174 28784 ft 414 kts 17°
2026-04-20 21:48 62.46028 -149.65895 28781 ft 413 kts 17°
2026-04-20 21:48 62.51424 -149.61606 28782 ft 413 kts 17°
2026-04-20 21:49 62.56808 -149.57309 28773 ft 412 kts 17°
2026-04-20 21:49 62.62179 -149.53008 28789 ft 411 kts 17°
2026-04-20 21:50 62.67556 -149.48685 28779 ft 412 kts 17°
2026-04-20 21:50 62.72891 -149.44379 28777 ft 412 kts 17°
2026-04-20 21:51 62.78264 -149.40025 28781 ft 412 kts 17°
2026-04-20 21:51 62.83636 -149.35655 28798 ft 412 kts 17°
2026-04-20 21:52 62.89007 -149.31268 28771 ft 413 kts 17°
2026-04-20 21:52 62.94385 -149.26860 28787 ft 412 kts 18°
2026-04-20 21:53 62.99748 -149.22444 28776 ft 411 kts 18°
2026-04-20 21:53 63.05092 -149.18028 28787 ft 409 kts 18°
2026-04-20 21:54 63.10414 -149.13613 28794 ft 408 kts 18°
2026-04-20 21:54 63.15730 -149.09180 28808 ft 408 kts 18°
2026-04-20 21:55 63.20932 -149.04826 28615 ft 392 kts 18°
2026-04-20 21:55 63.23462 -149.02710 28364 ft 385 kts 18°
2026-04-20 21:55 63.25959 -149.00615 27983 ft 382 kts 18°
2026-04-20 21:55 63.28400 -148.98585 27652 ft 377 kts 16°
2026-04-20 21:56 63.30887 -148.96861 27351 ft 371 kts 13°
2026-04-20 21:56 63.33371 -148.95351 26976 ft 369 kts 12°
2026-04-20 21:56 63.35841 -148.93911 26648 ft 365 kts 12°
2026-04-20 21:56 63.38290 -148.92481 26278 ft 363 kts 12°
2026-04-20 21:57 63.40725 -148.91041 25937 ft 361 kts 12°
2026-04-20 21:57 63.43142 -148.89592 25585 ft 358 kts 12°
2026-04-20 21:57 63.45541 -148.88137 25249 ft 356 kts 12°
2026-04-20 21:57 63.47925 -148.86680 24909 ft 354 kts 12°
2026-04-20 21:58 63.50293 -148.85222 24589 ft 352 kts 12°
2026-04-20 21:58 63.52649 -148.83764 24240 ft 351 kts 12°
2026-04-20 21:58 63.54996 -148.82314 23900 ft 349 kts 12°
2026-04-20 21:58 63.57335 -148.80867 23567 ft 348 kts 12°
2026-04-20 21:59 63.59665 -148.79423 23213 ft 347 kts 12°
2026-04-20 21:59 63.61990 -148.77979 22817 ft 345 kts 12°
2026-04-20 21:59 63.63551 -148.77007 22570 ft 344 kts 12°
2026-04-20 21:59 63.65849 -148.75575 22234 ft 341 kts 12°
2026-04-20 22:00 63.68129 -148.74150 21905 ft 339 kts 12°
2026-04-20 22:00 63.70392 -148.72733 21573 ft 337 kts 12°
2026-04-20 22:00 63.72644 -148.71322 21239 ft 335 kts 12°
2026-04-20 22:00 63.74852 -148.69936 20931 ft 333 kts 12°
2026-04-20 22:01 63.77074 -148.68539 20608 ft 331 kts 12°
2026-04-20 22:01 63.79284 -148.67147 20295 ft 329 kts 12°
2026-04-20 22:01 63.81484 -148.65758 20003 ft 328 kts 12°
2026-04-20 22:01 63.83675 -148.64375 19680 ft 327 kts 12°
2026-04-20 22:02 63.85863 -148.62993 19358 ft 325 kts 12°
2026-04-20 22:02 63.88039 -148.61614 19046 ft 324 kts 12°
2026-04-20 22:02 63.90209 -148.60235 18740 ft 323 kts 12°
2026-04-20 22:02 63.92375 -148.58855 18418 ft 323 kts 12°
2026-04-20 22:03 63.94536 -148.57479 18116 ft 322 kts 13°
2026-04-20 22:03 63.96686 -148.56107 17849 ft 319 kts 13°
2026-04-20 22:03 63.98815 -148.54747 17651 ft 314 kts 13°
2026-04-20 22:03 64.00918 -148.53402 17332 ft 313 kts 13°
2026-04-20 22:04 64.03006 -148.52062 17036 ft 312 kts 13°
2026-04-20 22:04 64.05100 -148.50719 16726 ft 314 kts 13°
2026-04-20 22:04 64.07229 -148.49348 16273 ft 321 kts 13°
2026-04-20 22:04 64.09380 -148.47960 15953 ft 323 kts 13°
2026-04-20 22:05 64.11548 -148.46558 15635 ft 324 kts 14°
2026-04-20 22:05 64.13720 -148.45150 15320 ft 324 kts 14°
2026-04-20 22:05 64.15880 -148.43748 14999 ft 323 kts 14°
2026-04-20 22:05 64.18043 -148.42342 14685 ft 322 kts 14°
2026-04-20 22:06 64.20175 -148.40953 14331 ft 324 kts 14°
2026-04-20 22:06 64.22352 -148.39533 13944 ft 326 kts 15°
2026-04-20 22:06 64.24532 -148.38109 13633 ft 326 kts 15°
2026-04-20 22:06 64.26739 -148.36664 13275 ft 326 kts 15°
2026-04-20 22:07 64.28918 -148.35235 12943 ft 325 kts 15°
2026-04-20 22:07 64.31057 -148.33830 12626 ft 323 kts 14°
2026-04-20 22:07 64.33213 -148.32411 12313 ft 322 kts 14°
2026-04-20 22:07 64.35337 -148.30810 11993 ft 322 kts 25°
2026-04-20 22:08 64.37244 -148.28168 11747 ft 318 kts 33°
2026-04-20 22:08 64.39079 -148.25293 11426 ft 318 kts 34°
2026-04-20 22:08 64.40902 -148.22401 11118 ft 318 kts 33°
2026-04-20 22:08 64.42725 -148.19522 10805 ft 317 kts 33°
2026-04-20 22:09 64.44547 -148.16665 10507 ft 317 kts 31°
2026-04-20 22:09 64.46373 -148.13817 10213 ft 316 kts 31°
2026-04-20 22:09 64.48168 -148.11022 10053 ft 305 kts 31°
2026-04-20 22:09 64.49902 -148.08326 9815 ft 298 kts 30°
2026-04-20 22:10 64.51626 -148.05652 9540 ft 298 kts 30°
2026-04-20 22:10 64.53347 -148.02985 9244 ft 297 kts 30°
2026-04-20 22:10 64.55059 -148.00327 8953 ft 295 kts 30°
2026-04-20 22:10 64.56758 -147.97685 8669 ft 293 kts 30°
2026-04-20 22:11 64.58446 -147.95056 8388 ft 291 kts 30°
2026-04-20 22:11 64.60120 -147.92445 8111 ft 289 kts 30°
2026-04-20 22:11 64.61780 -147.89851 7838 ft 287 kts 30°
2026-04-20 22:11 64.63429 -147.87272 7567 ft 284 kts 31°
2026-04-20 22:12 64.65065 -147.84709 7308 ft 282 kts 31°
2026-04-20 22:12 64.66689 -147.82160 7040 ft 280 kts 31°
2026-04-20 22:12 64.68301 -147.79628 6777 ft 278 kts 31°
2026-04-20 22:12 64.69893 -147.77122 6623 ft 272 kts 31°
2026-04-20 22:13 64.71441 -147.74683 6501 ft 265 kts 31°
2026-04-20 22:13 64.72946 -147.72308 6386 ft 258 kts 31°
2026-04-20 22:13 64.74410 -147.69994 6283 ft 250 kts 31°
2026-04-20 22:13 64.75835 -147.67738 6143 ft 244 kts 32°
2026-04-20 22:14 64.77191 -147.65370 5928 ft 242 kts 36°
2026-04-20 22:14 64.78509 -147.62930 5689 ft 240 kts 36°
2026-04-20 22:14 64.79804 -147.60518 5495 ft 234 kts 36°
2026-04-20 22:14 64.81060 -147.58183 5273 ft 227 kts 36°
2026-04-20 22:15 64.82282 -147.55922 5048 ft 220 kts 36°
2026-04-20 22:15 64.83469 -147.53746 4784 ft 214 kts 34°
2026-04-20 22:15 64.84757 -147.52082 4499 ft 209 kts 16°
2026-04-20 22:15 64.86166 -147.51466 4224 ft 205 kts 357°
2026-04-20 22:16 64.87568 -147.51821 3961 ft 200 kts 341°
2026-04-20 22:16 64.88829 -147.53022 3721 ft 192 kts 325°
2026-04-20 22:16 64.89864 -147.54883 3503 ft 185 kts 310°
2026-04-20 22:16 64.90641 -147.57226 3246 ft 180 kts 297°
2026-04-20 22:17 64.91132 -147.59888 3015 ft 175 kts 283°
2026-04-20 22:17 64.91339 -147.62679 2854 ft 168 kts 270°
2026-04-20 22:17 64.91274 -147.65409 2738 ft 168 kts 257°
2026-04-20 22:17 64.90879 -147.67994 2531 ft 166 kts 240°
2026-04-20 22:18 64.90144 -147.70063 2307 ft 164 kts 222°
2026-04-20 22:18 64.89320 -147.71857 2114 ft 164 kts 221°
2026-04-20 22:18 64.88442 -147.73555 1932 ft 159 kts 218°
2026-04-20 22:18 64.87586 -147.75131 1688 ft 153 kts 218°
2026-04-20 22:19 64.86751 -147.76662 1517 ft 152 kts 218°
2026-04-20 22:19 64.85922 -147.78185 1325 ft 151 kts 218°
2026-04-20 22:19 64.85092 -147.79701 1106 ft 151 kts 218°
2026-04-20 22:19 64.84269 -147.81223 918 ft 149 kts 218°
2026-04-20 22:20 64.83464 -147.82701 671 ft 143 kts 218°
2026-04-20 22:20 64.82706 -147.84107 474 ft 142 kts 217°
2026-04-20 22:20 64.81967 -147.85462 430 ft 117 kts 218°
2026-04-20 22:20 64.81451 -147.86409 436 ft 74 kts 218°
2026-04-20 22:21 64.81190 -147.86891 423 ft 20 kts 217°
2026-04-20 22:21 64.81171 -147.87038 434 ft 10 kts 309°
2026-04-20 22:21 64.81230 -147.87127 430 ft 11 kts
2026-04-20 22:21 64.81292 -147.87032 435 ft 11 kts 36°
2026-04-20 22:22 64.81348 -147.86926 435 ft 10 kts 40°
2026-04-20 22:22 64.81403 -147.86825 433 ft 10 kts 37°
2026-04-20 22:22 64.81458 -147.86729 428 ft 10 kts 36°
2026-04-20 22:22 64.81485 -147.86680 430 ft 0 kts 38°
2026-04-20 22:23 64.81492 -147.86666 434 ft 6 kts 38°
2026-04-20 22:23 64.81537 -147.86587 433 ft 9 kts 37°
2026-04-20 22:23 64.81589 -147.86537 422 ft 8 kts 344°
2026-04-20 22:23 64.81642 -147.86561 430 ft 8 kts 32°
2026-04-20 22:24 64.81655 -147.86534 429 ft 0 kts 40°
2026-04-20 22:24 64.81662 -147.86522 433 ft 2 kts 30°
2026-04-20 22:25 64.81683 -147.86525 417 ft 3 kts 338°
2026-04-20 22:25 64.81700 -147.86558 429 ft 3 kts 319°
2026-04-20 22:25 64.81716 -147.86590 420 ft 3 kts 321°
2026-04-20 22:25 64.81732 -147.86617 420 ft 1 kts 324°
2026-04-20 22:26 64.81732 -147.86618 420 ft 0 kts 325°